Colorado Springs, CO

9:28 PM MDT on May 24, 2017 (GMT -0600)
City Of Colorado Springs Municipal

Weather History for KCOS - April, 2012

Change the Weather History Date:

Wednesday, April 4, 2012

  Actual Average Record
Temperature  
Mean Temperature 45 °F 43 °F  
Max Temperature 57 °F 57 °F 77 °F (1959)
Min Temperature 33 °F 30 °F 1 °F (1920)
Degree Days  
Heating Degree Days 20 22  
Month to date heating degree days 72 88  
Since 1 July heating degree days 4812 5456  
Cooling Degree Days 0 0  
Month to date cooling degree days 0 0  
Year to date cooling degree days 0 0  
Moisture  
Dew Point 33 °F    
Average Humidity 71    
Maximum Humidity 92    
Minimum Humidity 50    
Precipitation  
Precipitation 0.01 in 0.03 in 1.50 in (1900)
Month to date precipitation 0.14 0.13  
Year to date precipitation 0.51 1.79  
Snow  
Snow T in 0.20 in 5.60 in (1953)
Month to date snowfall T 0.8  
Since 1 July snowfall 21.7 32.9  
Snow Depth -    
Sea Level Pressure  
Sea Level Pressure 29.95 in    
Wind  
Wind Speed 10 mph (NNW)    
Max Wind Speed 22 mph    
Max Gust Speed 29 mph    
Visibility 8 miles    
Events Snow    
T = Trace of Precipitation, MM = Missing Value Source: NWS Daily Summary

Daily Weather History Graph

Daily Weather History Graph

Search for Another Location

Airport or City:

Trip Planner

Search our weather history database for the weather conditions in past years. The results will help you decide how hot, cold, wet, or windy it might be!

Date:

Astronomy

Apr. 04, 2012 Rise Set
Actual Time 6:38 AM MDT 7:25 PM MDT
Civil Twilight 6:11 AM MDT 7:52 PM MDT
Nautical Twilight 5:39 AM MDT 8:24 PM MDT
Astronomical Twilight 5:06 AM MDT 8:57 PM MDT
Moon 5:23 PM MDT (4/4) 5:00 AM MDT (4/4)
Length of Visible Light 13h 41m
Length of Day
12h 47m
Waxing Gibbous, 94% of the Moon is Illuminated
Apr 4
Waxing Gibbous
Apr 6
Full
Apr 13
Last Quarter
Apr 21
New
Apr 29
First Quarter

Hourly Weather History & Observations

Time (MDT) Temp. Windchill Dew Point Humidity Pressure Visibility Wind Dir Wind Speed Gust Speed Precip Events Conditions
12:46 AM 33.8 °F 22.5 °F 26.6 °F 75% 30.00 in 3.0 mi NNW 19.6 mph 28.8 mph 0.00 in Snow Light Snow
12:54 AM 34.0 °F 22.7 °F 27.0 °F 75% 30.06 in 3.0 mi NNW 19.6 mph 29.9 mph 0.00 in Snow Light Snow
1:26 AM 33.8 °F 25.3 °F 28.4 °F 81% 30.04 in 1.8 mi NNW 11.5 mph - 0.00 in Snow Light Snow
1:40 AM 33.8 °F 25.3 °F 28.4 °F 81% 30.04 in 3.0 mi NNW 11.5 mph - 0.01 in Snow Light Snow
1:54 AM 33.1 °F 24.9 °F 28.0 °F 82% 30.07 in 3.0 mi NNW 10.4 mph - 0.01 in Snow Light Snow
2:02 AM 33.8 °F 24.8 °F 28.4 °F 81% 30.03 in 4.0 mi NNW 12.7 mph - 0.00 in Snow Light Snow
2:54 AM 34.0 °F 23.8 °F 27.0 °F 75% 30.06 in 6.0 mi NW 16.1 mph 23.0 mph 0.00 in Snow Light Snow
3:54 AM 33.8 °F 22.2 °F 26.6 °F 75% 29.98 in 8.0 mi NNW 20.7 mph 25.3 mph N/A   Overcast
4:54 AM 35.1 °F 24.5 °F 27.0 °F 72% 30.03 in 10.0 mi NNW 18.4 mph - N/A   Mostly Cloudy
5:54 AM 35.1 °F 26.4 °F 28.0 °F 76% 30.02 in 4.0 mi North 12.7 mph - 0.00 in Snow Light Snow
6:54 AM 35.1 °F 27.9 °F 28.0 °F 76% 30.01 in 10.0 mi NNE 9.2 mph - 0.00 in   Mostly Cloudy
7:54 AM 37.0 °F 29.8 °F 30.0 °F 76% 30.01 in 10.0 mi NNW 10.4 mph - N/A   Mostly Cloudy
8:54 AM 37.4 °F 33.8 °F 30.2 °F 75% 29.99 in 10.0 mi NNW 4.6 mph - N/A   Mostly Cloudy
9:54 AM 39.9 °F 33.9 °F 33.1 °F 77% 30.02 in 10.0 mi West 9.2 mph - N/A   Mostly Cloudy
10:54 AM 48.9 °F - 37.0 °F 64% 29.95 in 10.0 mi NNW 10.4 mph - N/A   Scattered Clouds
11:54 AM 54.0 °F - 36.0 °F 51% 29.90 in 10.0 mi NNE 10.4 mph - N/A   Scattered Clouds
12:54 PM 52.0 °F - 39.0 °F 61% 29.89 in 10.0 mi South 13.8 mph - N/A   Scattered Clouds
1:54 PM 53.1 °F - 39.0 °F 59% 29.88 in 10.0 mi South 12.7 mph - N/A   Scattered Clouds
2:54 PM 54.0 °F - 39.0 °F 57% 29.86 in 10.0 mi South 11.5 mph - N/A   Scattered Clouds
3:54 PM 55.0 °F - 37.9 °F 53% 29.84 in 10.0 mi Calm Calm - N/A   Scattered Clouds
4:54 PM 55.9 °F - 39.0 °F 53% 29.83 in 10.0 mi South 10.4 mph - N/A   Scattered Clouds
5:54 PM 52.0 °F - 39.9 °F 63% 29.86 in 10.0 mi SSE 11.5 mph - N/A   Scattered Clouds
6:54 PM 50.0 °F - 39.9 °F 68% 29.88 in 10.0 mi SSE 10.4 mph - N/A   Partly Cloudy
7:54 PM 46.0 °F 41.9 °F 39.0 °F 76% 29.88 in 10.0 mi South 8.1 mph - N/A   Scattered Clouds
8:54 PM 44.1 °F 40.8 °F 39.9 °F 85% 29.91 in 10.0 mi SSE 5.8 mph - N/A   Mostly Cloudy
9:23 PM 44.6 °F 41.4 °F 39.2 °F 81% 29.93 in 7.0 mi South 5.8 mph - N/A   Scattered Clouds
9:54 PM 44.1 °F 41.5 °F 39.0 °F 82% 29.91 in 9.0 mi South 4.6 mph - N/A   Partly Cloudy
10:54 PM 39.9 °F 36.7 °F 37.0 °F 89% 29.88 in 8.0 mi NE 4.6 mph - N/A   Partly Cloudy
11:54 PM 37.9 °F 35.5 °F 34.0 °F 86% 29.87 in 8.0 mi NE 3.5 mph - N/A   Partly Cloudy